Weather History for Pinedale, WY

Change the Weather History Date:

Wednesday, December 5, 2012

  Actual Average (KBPI) Record (KBPI)
Temperature  
Mean Temperature 30 °F 15 °F  
Max Temperature 37 °F 28 °F 45 °F (2014)
Min Temperature 24 °F 1 °F -33 °F (1992)
Degree Days  
Heating Degree Days 34 50  
Month to date heating degree days 248  
Since 1 July heating degree days 3063  
Cooling Degree Days 0 0  
Month to date cooling degree days 0  
Year to date cooling degree days 35  
Moisture  
Dew Point 31 °F    
Average Humidity 97    
Maximum Humidity 100    
Minimum Humidity 87    
Precipitation  
Precipitation 0.00 in 0.01 in 0.50 in (1978)
Month to date precipitation 0.05  
Year to date precipitation 6.23  
Sea Level Pressure  
Sea Level Pressure 30.09 in    
Wind  
Wind Speed 2 mph (North)    
Max Wind Speed 10 mph    
Max Gust Speed -    
Visibility 10 miles    
Events Snow    
T = Trace of Precipitation, MM = Missing Value Source: NWS Daily Summary

Daily Weather History Graph

Daily Weather History Graph

Search for Another Location

Airport:

Trip Planner

Search our weather history database for the weather conditions in past years. The results will help you decide how hot, cold, wet, or windy it might be!

Date:

Astronomy

Dec. 05, 2012 Rise Set
Actual Time 7:34 AM MST 4:45 PM MST
Civil Twilight 7:02 AM MST 5:17 PM MST
Nautical Twilight 6:27 AM MST 5:52 PM MST
Astronomical Twilight 5:53 AM MST 6:26 PM MST
Moon 11:45 PM MST (12/5) 11:53 AM MST (12/5)
Length of Visible Light 10h 14m
Length of Day
9h 10m
Waning Gibbous, 59% of the Moon is Illuminated
Dec 5
Waning Gibbous
Dec 6
Last Quarter
Dec 13
New
Dec 19
First Quarter
Dec 28
Full

Hourly Weather History & Observations

Time (MST) Temp. Windchill Dew Point Humidity Pressure Visibility Wind Dir Wind Speed Gust Speed Precip Events Conditions
12:15 AM 30.2 °F - 30.2 °F 100% 30.23 in 5.0 mi Calm Calm - N/A Snow Light Snow
12:35 AM 30.2 °F - 30.2 °F 100% 30.22 in 4.0 mi Calm Calm - N/A Snow Light Snow
12:55 AM 30.2 °F - 30.2 °F 100% 30.21 in 10.0 mi Calm Calm - N/A   Overcast
1:15 AM 30.2 °F 26.7 °F 30.2 °F 100% 30.21 in 10.0 mi WNW 3.5 mph - N/A   Overcast
1:35 AM 30.2 °F - 30.2 °F 100% 30.19 in 10.0 mi Calm Calm - N/A   Overcast
1:55 AM 30.2 °F - 30.2 °F 100% 30.19 in 10.0 mi Calm Calm - N/A   Overcast
2:15 AM 30.2 °F - 30.2 °F 100% 30.19 in 10.0 mi Calm Calm - N/A   Overcast
2:35 AM 30.2 °F - 30.2 °F 100% 30.19 in 7.0 mi Calm Calm - N/A   Overcast
2:55 AM 32.0 °F 27.5 °F 32.0 °F 100% 30.18 in 10.0 mi ESE 4.6 mph - N/A   Overcast
3:15 AM 32.0 °F 27.5 °F 32.0 °F 100% 30.18 in 10.0 mi East 4.6 mph - N/A   Overcast
3:35 AM 32.0 °F 27.5 °F 32.0 °F 100% 30.17 in 10.0 mi East 4.6 mph - N/A   Overcast
3:55 AM 32.0 °F 27.5 °F 32.0 °F 100% 30.16 in 10.0 mi East 4.6 mph - N/A   Overcast
4:15 AM 32.0 °F 27.5 °F 32.0 °F 100% 30.15 in 10.0 mi ENE 4.6 mph - N/A   Overcast
4:35 AM 32.0 °F - 32.0 °F 100% 30.14 in 10.0 mi Calm Calm - N/A   Overcast
4:55 AM 32.0 °F - 32.0 °F 100% 30.13 in 10.0 mi Calm Calm - N/A   Overcast
5:15 AM 32.0 °F - 32.0 °F 100% 30.13 in 10.0 mi Calm Calm - N/A   Overcast
5:35 AM 32.0 °F 27.5 °F 32.0 °F 100% 30.13 in 10.0 mi NNW 4.6 mph - N/A   Overcast
5:55 AM 32.0 °F - 32.0 °F 100% 30.11 in 10.0 mi Calm Calm - N/A   Light Drizzle
7:55 AM 32.0 °F 26.4 °F 32.0 °F 100% 30.09 in 10.0 mi ESE 5.8 mph - N/A   Overcast
8:15 AM 32.0 °F 28.7 °F 32.0 °F 100% 30.09 in 10.0 mi ESE 3.5 mph - N/A   Overcast
8:35 AM 32.0 °F - 32.0 °F 100% 30.09 in 10.0 mi Calm Calm - N/A   Overcast
8:55 AM 33.8 °F - 33.8 °F 100% 30.09 in 10.0 mi Calm Calm - N/A   Overcast
9:15 AM 33.8 °F - 33.8 °F 100% 30.09 in 10.0 mi Calm Calm - N/A   Overcast
9:35 AM 33.8 °F - 33.8 °F 100% 30.08 in 10.0 mi Calm Calm - N/A   Overcast
9:55 AM 35.6 °F - 33.8 °F 93% 30.09 in 10.0 mi Calm Calm - N/A   Overcast
10:15 AM 35.6 °F - 33.8 °F 93% 30.09 in 10.0 mi Calm Calm - N/A   Overcast
10:35 AM 35.6 °F 31.7 °F 33.8 °F 93% 30.08 in 10.0 mi ESE 4.6 mph - N/A   Overcast
10:55 AM 35.6 °F 31.7 °F 33.8 °F 93% 30.08 in 10.0 mi ESE 4.6 mph - N/A   Overcast
11:15 AM 35.6 °F 32.8 °F 33.8 °F 93% 30.07 in 10.0 mi ENE 3.5 mph - N/A   Overcast
11:35 AM 37.4 °F - 33.8 °F 87% 30.06 in 10.0 mi Calm Calm - N/A   Overcast
11:55 AM 37.4 °F 34.9 °F 33.8 °F 87% 30.05 in 10.0 mi East 3.5 mph - N/A   Overcast
12:15 PM 37.4 °F - 33.8 °F 87% 30.05 in 10.0 mi Calm Calm - N/A   Overcast
12:35 PM 37.4 °F 32.8 °F 33.8 °F 87% 30.03 in 10.0 mi East 5.8 mph - N/A   Overcast
12:55 PM 37.4 °F 32.8 °F 33.8 °F 87% 30.03 in 10.0 mi ESE 5.8 mph - N/A   Overcast
1:15 PM 37.4 °F 32.1 °F 33.8 °F 87% 30.03 in 10.0 mi East 6.9 mph - N/A   Mostly Cloudy
1:35 PM 37.4 °F 33.8 °F 33.8 °F 87% 30.03 in 10.0 mi East 4.6 mph - N/A   Overcast
1:55 PM 37.4 °F 34.9 °F 33.8 °F 87% 30.03 in 10.0 mi ENE 3.5 mph - N/A   Overcast
2:15 PM 37.4 °F 34.9 °F 33.8 °F 87% 30.03 in 10.0 mi NE 3.5 mph - N/A   Drizzle
2:35 PM 37.4 °F - 35.6 °F 93% 30.03 in 10.0 mi Calm Calm - N/A   Drizzle
2:55 PM 35.6 °F 31.7 °F 35.6 °F 100% 30.03 in 10.0 mi East 4.6 mph - N/A   Overcast
3:15 PM 35.6 °F 32.8 °F 35.6 °F 100% 30.04 in 10.0 mi ENE 3.5 mph - N/A   Mostly Cloudy
3:35 PM 35.6 °F - 35.6 °F 100% 30.04 in 10.0 mi Calm Calm - N/A   Mostly Cloudy
3:55 PM 37.4 °F - 35.6 °F 93% 30.05 in 10.0 mi Calm Calm - N/A   Scattered Clouds
4:15 PM 35.6 °F 32.8 °F 33.8 °F 93% 30.05 in 10.0 mi NE 3.5 mph - N/A   Clear
4:35 PM 33.8 °F - 33.8 °F 100% 30.05 in 10.0 mi Calm Calm - N/A   Clear
4:55 PM 32.0 °F - 32.0 °F 100% 30.06 in 10.0 mi Calm Calm - N/A   Scattered Clouds
5:15 PM 32.0 °F - 32.0 °F 100% 30.06 in 10.0 mi Calm Calm - N/A   Scattered Clouds
5:35 PM 30.2 °F 25.4 °F 30.2 °F 100% 30.06 in 10.0 mi WNW 4.6 mph - N/A   Mostly Cloudy
5:55 PM 30.2 °F 25.4 °F 30.2 °F 100% 30.07 in 10.0 mi West 4.6 mph - N/A   Scattered Clouds
6:15 PM 30.2 °F 25.4 °F 30.2 °F 100% 30.07 in 10.0 mi WNW 4.6 mph - N/A   Clear
6:35 PM 30.2 °F - 30.2 °F 100% 30.06 in 10.0 mi Calm Calm - N/A   Clear
6:55 PM 28.4 °F 23.3 °F 28.4 °F 100% 30.07 in 10.0 mi WNW 4.6 mph - N/A   Scattered Clouds
7:15 PM 30.2 °F 21.9 °F 30.2 °F 100% 30.07 in 10.0 mi West 9.2 mph - N/A   Mostly Cloudy
7:35 PM 32.0 °F 25.6 °F 30.2 °F 93% 30.08 in 10.0 mi WNW 6.9 mph - N/A   Scattered Clouds
7:55 PM 30.2 °F 26.7 °F 30.2 °F 100% 30.08 in 10.0 mi NW 3.5 mph - N/A   Mostly Cloudy
8:15 PM 28.4 °F 21.2 °F 28.4 °F 100% 30.08 in 10.0 mi NNW 6.9 mph - N/A   Mostly Cloudy
8:35 PM 30.2 °F 21.9 °F 28.4 °F 93% 30.08 in 10.0 mi WNW 9.2 mph - N/A   Mostly Cloudy
8:55 PM 28.4 °F 21.2 °F 28.4 °F 100% 30.07 in 10.0 mi West 6.9 mph - N/A   Mostly Cloudy
9:15 PM 28.4 °F 24.6 °F 26.6 °F 93% 30.07 in 10.0 mi WNW 3.5 mph - N/A   Clear
9:35 PM 28.4 °F 23.3 °F 26.6 °F 93% 30.07 in 10.0 mi NW 4.6 mph - N/A   Scattered Clouds
9:55 PM 24.8 °F 16.9 °F 24.8 °F 100% 30.06 in 10.0 mi NW 6.9 mph - N/A   Scattered Clouds
10:15 PM 26.6 °F 16.8 °F 26.6 °F 100% 30.06 in 10.0 mi West 10.4 mph - N/A   Scattered Clouds
10:35 PM 26.6 °F 20.0 °F 24.8 °F 93% 30.07 in 10.0 mi NW 5.8 mph - N/A   Scattered Clouds
10:55 PM 26.6 °F 20.0 °F 26.6 °F 100% 30.06 in 10.0 mi WNW 5.8 mph - N/A   Clear
11:15 PM 26.6 °F 20.0 °F 26.6 °F 100% 30.07 in 10.0 mi West 5.8 mph - N/A   Scattered Clouds
11:35 PM 28.4 °F 21.2 °F 28.4 °F 100% 30.06 in 10.0 mi West 6.9 mph - N/A   Mostly Cloudy
11:55 PM 28.4 °F 23.3 °F 26.6 °F 93% 30.06 in 10.0 mi West 4.6 mph - N/A   Mostly Cloudy